Hourly Weather Rudki

Today, 16 April, Friday

Time Temperature Precipitation Wind Pressure Humidity
00:00 -1°C° 0.1 mm 4 mps 738 mmHg 99%
01:00 0°C° 0 mm 4 mps 737 mmHg 97%
02:00 0°C° 0.5 mm 4 mps 737 mmHg 98%
03:00 0°C° 0.5 mm 4 mps 737 mmHg 98%
04:00 0°C° 0.5 mm 4 mps 737 mmHg 98%
05:00 +1°C° 1.3 mm 4 mps 737 mmHg 98%
06:00 +1°C° 1.3 mm 4 mps 736 mmHg 97%
07:00 +1°C° 1.3 mm 4 mps 736 mmHg 97%
08:00 +1°C° 1.4 mm 5 mps 736 mmHg 97%
09:00 +1°C° 1.4 mm 5 mps 736 mmHg 97%
10:00 +1°C° 1.4 mm 5 mps 736 mmHg 97%
11:00 +1°C° 0.5 mm 5 mps 736 mmHg 97%
12:00 +1°C° 0.5 mm 5 mps 736 mmHg 97%
13:00 +1°C° 0.5 mm 5 mps 737 mmHg 97%
14:00 +2°C° 0.4 mm 5 mps 737 mmHg 97%
15:00 +2°C° 0.4 mm 5 mps 737 mmHg 97%
16:00 +2°C° 0.4 mm 5 mps 737 mmHg 97%
17:00 +2°C° 0.4 mm 5 mps 737 mmHg 97%
18:00 +2°C° 0.4 mm 5 mps 737 mmHg 97%
19:00 +2°C° 0.4 mm 5 mps 737 mmHg 97%
20:00 +2°C° 0.4 mm 5 mps 737 mmHg 97%
21:00 +1°C° 0.4 mm 5 mps 738 mmHg 97%
22:00 +1°C° 0.4 mm 5 mps 738 mmHg 97%
23:00 +1°C° 0.8 mm 5 mps 738 mmHg 97%

Tomorrow, 17 April, Saturday

Time Temperature Precipitation Wind Pressure Humidity
00:00 +1°C° 0.8 mm 5 mps 738 mmHg 97%
01:00 +1°C° 0.8 mm 4 mps 738 mmHg 97%
02:00 +1°C° 1.3 mm 4 mps 738 mmHg 97%
03:00 +1°C° 1.3 mm 4 mps 738 mmHg 97%
04:00 +1°C° 1.3 mm 4 mps 738 mmHg 97%
05:00 +1°C° 1 mm 4 mps 738 mmHg 97%
06:00 +1°C° 1 mm 4 mps 739 mmHg 97%
07:00 +2°C° 1 mm 3 mps 739 mmHg 97%
08:00 +2°C° 0.2 mm 3 mps 739 mmHg 97%
09:00 +2°C° 0.2 mm 3 mps 739 mmHg 96%
10:00 +2°C° 0.2 mm 3 mps 740 mmHg 96%
11:00 +3°C° 0 mm 3 mps 740 mmHg 95%
12:00 +3°C° 0 mm 3 mps 740 mmHg 95%
13:00 +4°C° 0 mm 2 mps 740 mmHg 94%
14:00 +4°C° 0 mm 2 mps 740 mmHg 93%
15:00 +4°C° 0 mm 2 mps 740 mmHg 93%
16:00 +5°C° 0 mm 2 mps 740 mmHg 92%
17:00 +5°C° 0 mm 1 mps 741 mmHg 92%
18:00 +5°C° 0 mm 1 mps 741 mmHg 93%
19:00 +5°C° 0 mm 1 mps 741 mmHg 93%
20:00 +5°C° 0 mm 1 mps 741 mmHg 92%
21:00 +5°C° 0 mm 1 mps 741 mmHg 91%
22:00 +5°C° 0 mm 1 mps 741 mmHg 91%
23:00 +5°C° 0 mm 1 mps 741 mmHg 90%

Day after tomorrow, 18 April, Sunday

Time Temperature Precipitation Wind Pressure Humidity
00:00 +5°C° 0 mm 1 mps 741 mmHg 89%
01:00 +5°C° 0 mm 1 mps 741 mmHg 89%
02:00 +5°C° 0 mm 1 mps 741 mmHg 87%
03:00 +5°C° 0 mm 1 mps 741 mmHg 86%
04:00 +5°C° 0 mm 1 mps 741 mmHg 84%
05:00 +6°C° 0 mm 1 mps 741 mmHg 82%
06:00 +6°C° 0 mm 1 mps 741 mmHg 79%
07:00 +7°C° 0 mm 1 mps 741 mmHg 77%
08:00 +7°C° 0 mm 2 mps 741 mmHg 72%
09:00 +8°C° 0 mm 2 mps 741 mmHg 68%
10:00 +10°C° 0 mm 2 mps 740 mmHg 64%
11:00 +12°C° 0 mm 2 mps 740 mmHg 61%
12:00 +12°C° 0 mm 3 mps 740 mmHg 57%
13:00 +13°C° 0 mm 3 mps 740 mmHg 54%
14:00 +13°C° 0 mm 3 mps 740 mmHg 54%
15:00 +13°C° 0 mm 3 mps 740 mmHg 55%
16:00 +13°C° 0 mm 3 mps 739 mmHg 55%
17:00 +12°C° 0 mm 3 mps 739 mmHg 62%
18:00 +12°C° 0 mm 2 mps 739 mmHg 69%
19:00 +9°C° 0 mm 2 mps 740 mmHg 76%
20:00 +9°C° 0.1 mm 2 mps 739 mmHg 79%
21:00 +9°C° 0.1 mm 2 mps 739 mmHg 83%
22:00 +9°C° 0.1 mm 2 mps 739 mmHg 87%
23:00 +8°C° 0.1 mm 2 mps 739 mmHg 89%

19 April, Monday

Time Temperature Precipitation Wind Pressure Humidity
00:00 +8°C° 0.1 mm 3 mps 739 mmHg 92%
01:00 +8°C° 0.1 mm 3 mps 739 mmHg 94%
02:00 +8°C° 0.1 mm 3 mps 739 mmHg 94%
03:00 +8°C° 0.1 mm 3 mps 739 mmHg 93%
04:00 +6°C° 0.1 mm 4 mps 739 mmHg 93%
05:00 +6°C° 0.1 mm 4 mps 739 mmHg 90%
06:00 +6°C° 0.1 mm 5 mps 739 mmHg 86%
07:00 +6°C° 0.1 mm 5 mps 739 mmHg 83%
08:00 +7°C° 0 mm 5 mps 739 mmHg 75%
09:00 +9°C° 0 mm 5 mps 739 mmHg 68%
10:00 +10°C° 0 mm 6 mps 739 mmHg 61%
11:00 +10°C° 0 mm 5 mps 738 mmHg 57%
12:00 +12°C° 0 mm 5 mps 738 mmHg 53%
13:00 +13°C° 0 mm 5 mps 738 mmHg 49%
14:00 +12°C° 0 mm 5 mps 737 mmHg 55%
15:00 +10°C° 0 mm 5 mps 737 mmHg 61%
16:00 +9°C° 0 mm 5 mps 737 mmHg 66%
17:00 +9°C° 0 mm 5 mps 737 mmHg 69%
18:00 +8°C° 0 mm 4 mps 737 mmHg 72%
19:00 +7°C° 0 mm 4 mps 737 mmHg 75%
20:00 +7°C° 0.1 mm 4 mps 737 mmHg 77%
21:00 +7°C° 0.1 mm 4 mps 737 mmHg 79%
22:00 +7°C° 0.1 mm 4 mps 737 mmHg 81%
23:00 +6°C° 0 mm 4 mps 736 mmHg 83%

20 April, Tuesday

Time Temperature Precipitation Wind Pressure Humidity
00:00 +5°C° 0 mm 3 mps 736 mmHg 85%
01:00 +5°C° 0 mm 3 mps 736 mmHg 86%
02:00 +4°C° 0 mm 3 mps 736 mmHg 87%
03:00 +4°C° 0 mm 3 mps 736 mmHg 88%
04:00 +4°C° 0 mm 2 mps 735 mmHg 89%
05:00 +5°C° 0 mm 2 mps 735 mmHg 84%
06:00 +5°C° 0 mm 3 mps 735 mmHg 80%
07:00 +5°C° 0 mm 3 mps 735 mmHg 75%
08:00 +7°C° 0 mm 3 mps 735 mmHg 73%
09:00 +7°C° 0 mm 3 mps 735 mmHg 72%
10:00 +7°C° 0 mm 4 mps 735 mmHg 70%
11:00 +7°C° 0 mm 4 mps 735 mmHg 66%
12:00 +8°C° 0 mm 5 mps 734 mmHg 62%
13:00 +9°C° 0 mm 5 mps 734 mmHg 58%
14:00 +9°C° 0 mm 5 mps 734 mmHg 58%
15:00 +9°C° 0 mm 5 mps 734 mmHg 59%
16:00 +9°C° 0 mm 5 mps 734 mmHg 59%
17:00 +8°C° 0 mm 5 mps 734 mmHg 64%
18:00 +6°C° 0 mm 4 mps 734 mmHg 70%
19:00 +5°C° 0 mm 3 mps 734 mmHg 75%
20:00 +5°C° 0 mm 3 mps 734 mmHg 79%
21:00 +4°C° 0 mm 3 mps 734 mmHg 82%
22:00 +4°C° 0 mm 3 mps 734 mmHg 86%
23:00 +3°C° 0 mm 3 mps 734 mmHg 88%

21 April, Wednesday

Time Temperature Precipitation Wind Pressure Humidity
00:00 +3°C° 0 mm 3 mps 734 mmHg 90%
01:00 +2°C° 0 mm 3 mps 734 mmHg 93%
02:00 +2°C° 0 mm 3 mps 734 mmHg 94%
03:00 +2°C° 0 mm 3 mps 734 mmHg 94%
04:00 +2°C° 0 mm 3 mps 734 mmHg 95%
05:00 +3°C° 0 mm 3 mps 734 mmHg 91%
06:00 +4°C° 0 mm 3 mps 735 mmHg 87%
07:00 +5°C° 0 mm 3 mps 735 mmHg 83%
08:00 +7°C° 0.1 mm 3 mps 735 mmHg 78%
09:00 +8°C° 0.1 mm 3 mps 735 mmHg 74%
10:00 +8°C° 0.1 mm 4 mps 735 mmHg 70%
11:00 +10°C° 0.1 mm 4 mps 735 mmHg 64%
12:00 +11°C° 0.1 mm 4 mps 735 mmHg 59%
13:00 +11°C° 0.1 mm 4 mps 735 mmHg 53%
14:00 +11°C° 0 mm 4 mps 735 mmHg 52%
15:00 +12°C° 0 mm 4 mps 735 mmHg 52%
16:00 +12°C° 0 mm 3 mps 735 mmHg 52%
17:00 +10°C° 0 mm 2 mps 735 mmHg 58%
18:00 +9°C° 0 mm 2 mps 736 mmHg 64%
19:00 +8°C° 0 mm 1 mps 736 mmHg 70%
20:00 +8°C° 0 mm 1 mps 736 mmHg 73%
21:00 +6°C° 0 mm 2 mps 736 mmHg 75%
22:00 +6°C° 0 mm 2 mps 736 mmHg 78%
23:00 +4°C° 0 mm 3 mps 736 mmHg 79%
Show more